This is the latest recevied weather packets stored in our database for station/object K0QED. If no packets are shown the sender has not sent any weather packets the latest 10 day(s).
| Time | Temp. | Humidity | Pressure | Rain* | Wind** | Luminosity | Snow |
|---|---|---|---|---|---|---|---|
| 1788022708 | 25° C | 39% | 1027.5 hPa | 0 mm | - | 258 W/m² | - |
| 1788022407 | 25° C | 39% | 1027.5 hPa | 0 mm | - | 202 W/m² | - |
| 1788022107 | 25° C | 39% | 1027.5 hPa | 0 mm | - | 176 W/m² | - |
| 1788021801 | 25.56° C | 37% | 1027.4 hPa | 0 mm | - | 309 W/m² | - |
| 1788021499 | 26.67° C | 36% | 1027.4 hPa | 0 mm | - | 395 W/m² | - |
| 1788021193 | 26.11° C | 37% | 1027.4 hPa | 0 mm | - | 585 W/m² | - |
| 1788020889 | 25.56° C | 38% | 1027.6 hPa | 0 mm | - | 721 W/m² | - |
| 1788020584 | 25.56° C | 37% | 1027.7 hPa | 0 mm | - | 627 W/m² | - |
| 1788020280 | 25° C | 39% | 1027.6 hPa | 0 mm | - | 559 W/m² | - |
| 1788019981 | 25° C | 38% | 1027.6 hPa | 0 mm | - | 511 W/m² | - |
| 1788019675 | 25° C | 38% | 1027.4 hPa | 0 mm | - | 404 W/m² | - |
| 1788019369 | 24.44° C | 40% | 1027.4 hPa | 0 mm | - | 158 W/m² | - |
| 1788019068 | 24.44° C | 40% | 1027.4 hPa | 0 mm | - | 137 W/m² | - |
| 1788018768 | 24.44° C | 39% | 1027.4 hPa | 0 mm | - | 165 W/m² | - |
| 1788018462 | 23.89° C | 41% | 1027.5 hPa | 0 mm | - | 186 W/m² | - |
| 1788018161 | 23.33° C | 42% | 1027.4 hPa | 0 mm | - | 131 W/m² | - |
| 1788017858 | 23.33° C | 42% | 1027.2 hPa | 0 mm | - | 131 W/m² | - |
| 1788017554 | 23.33° C | 42% | 1027.6 hPa | 0 mm | - | 163 W/m² | - |
| 1788017251 | 22.78° C | 43% | 1027.5 hPa | 0 mm | - | 176 W/m² | - |
| 1788016947 | 23.33° C | 41% | 1027.2 hPa | 0 mm | - | 175 W/m² | - |
| 1788016645 | 22.78° C | 43% | 1027 hPa | 0 mm | - | 179 W/m² | - |
| 1788016344 | 22.78° C | 43% | 1027.1 hPa | 0 mm | - | 175 W/m² | - |
| 1788016044 | 22.78° C | 43% | 1027.1 hPa | 0 mm | - | 174 W/m² | - |
| 1788015743 | 22.78° C | 44% | 1027.1 hPa | 0 mm | - | 191 W/m² | - |
| 1788015438 | 22.22° C | 43% | 1027.2 hPa | 0 mm | - | 203 W/m² | - |
* Rain latest hour (hover to see other rain measurements)
** Current wind speed in m/s (hover to see current wind gust speed)